When you browse on this site, cookies collect data to enhance your experience and personalize the content and advertising you see.
Visit our Privacy Policy to learn more. By continuing to use the site, you agree to this use of cookies and data.
  • In Schweiz
  • Länderverzeichnis
  • Für 7 Tage
  • Wassertemperatur
  • Wetterkarte
  • Widgets
  • user-avatar
    Anmelden

    Stündliche Wetter Berdytschev

    Heute, 23 Februar, Sonntag

    Zeit Temperatur Niederschläge Wind Luftdruck Luftfeuchtigkeit
    00:00 0°C° 0 mm 7 m/S 741 mmHg 75%
    01:00 0°C° 0 mm 7 m/S 740 mmHg 75%
    02:00 0°C° 0 mm 8 m/S 739 mmHg 74%
    03:00 0°C° 0 mm 8 m/S 738 mmHg 72%
    04:00 0°C° 0 mm 7 m/S 738 mmHg 70%
    05:00 +2°C° 0 mm 7 m/S 737 mmHg 68%
    06:00 +2°C° 0 mm 7 m/S 737 mmHg 71%
    07:00 +2°C° 0 mm 6 m/S 737 mmHg 75%
    08:00 +2°C° 0 mm 7 m/S 736 mmHg 78%
    09:00 +3°C° 0 mm 7 m/S 736 mmHg 78%
    10:00 +4°C° 0 mm 8 m/S 736 mmHg 78%
    11:00 +5°C° 0 mm 8 m/S 736 mmHg 78%
    12:00 +4°C° 0.2 mm 8 m/S 735 mmHg 78%
    13:00 +2°C° 0.2 mm 8 m/S 735 mmHg 79%
    14:00 +3°C° 0 mm 7 m/S 735 mmHg 77%
    15:00 +3°C° 0 mm 7 m/S 734 mmHg 76%
    16:00 +3°C° 0 mm 7 m/S 734 mmHg 75%
    17:00 +3°C° 0 mm 7 m/S 733 mmHg 74%
    18:00 +3°C° 0 mm 6 m/S 733 mmHg 78%
    19:00 +3°C° 0 mm 5 m/S 733 mmHg 82%
    20:00 +2°C° 0 mm 5 m/S 733 mmHg 86%
    21:00 +3°C° 0.5 mm 4 m/S 731 mmHg 89%
    22:00 +3°C° 0.5 mm 3 m/S 730 mmHg 92%
    23:00 +3°C° 0.5 mm 3 m/S 729 mmHg 96%

    Morgen, 24 Februar, Montag

    Zeit Temperatur Niederschläge Wind Luftdruck Luftfeuchtigkeit
    00:00 +3°C° 0.9 mm 4 m/S 727 mmHg 95%
    01:00 +3°C° 0.9 mm 5 m/S 725 mmHg 94%
    02:00 +3°C° 0.9 mm 6 m/S 724 mmHg 93%
    03:00 +4°C° 2.2 mm 7 m/S 722 mmHg 89%
    04:00 +5°C° 2.2 mm 8 m/S 720 mmHg 85%
    05:00 +5°C° 2.2 mm 9 m/S 719 mmHg 82%
    06:00 +2°C° 0.5 mm 10 m/S 719 mmHg 86%
    07:00 0°C° 0.5 mm 12 m/S 720 mmHg 90%
    08:00 -2°C° 0.5 mm 13 m/S 721 mmHg 94%
    09:00 -2°C° 0.2 mm 13 m/S 723 mmHg 86%
    10:00 -1°C° 0.2 mm 12 m/S 725 mmHg 78%
    11:00 +1°C° 0.2 mm 11 m/S 726 mmHg 69%
    12:00 +1°C° 0.1 mm 11 m/S 727 mmHg 73%
    13:00 -1°C° 0.1 mm 11 m/S 729 mmHg 76%
    14:00 -1°C° 0.1 mm 11 m/S 730 mmHg 80%
    15:00 -1°C° 0.1 mm 11 m/S 730 mmHg 79%
    16:00 -1°C° 0.1 mm 11 m/S 731 mmHg 79%
    17:00 0°C° 0.1 mm 10 m/S 732 mmHg 78%
    18:00 0°C° 0.1 mm 9 m/S 733 mmHg 78%
    19:00 0°C° 0.1 mm 8 m/S 734 mmHg 77%
    20:00 0°C° 0.1 mm 7 m/S 734 mmHg 77%
    21:00 -1°C° 0 mm 7 m/S 735 mmHg 79%
    22:00 -1°C° 0 mm 7 m/S 735 mmHg 80%
    23:00 -1°C° 0 mm 6 m/S 736 mmHg 82%

    übermorgen, 25 Februar, Dienstag

    Zeit Temperatur Niederschläge Wind Luftdruck Luftfeuchtigkeit
    00:00 -1°C° 0 mm 5 m/S 736 mmHg 84%
    01:00 -1°C° 0 mm 5 m/S 736 mmHg 86%
    02:00 -2°C° 0 mm 4 m/S 737 mmHg 89%
    03:00 -1°C° 0 mm 3 m/S 736 mmHg 89%
    04:00 -1°C° 0 mm 3 m/S 736 mmHg 90%
    05:00 -1°C° 0 mm 3 m/S 735 mmHg 90%
    06:00 -1°C° 0 mm 3 m/S 735 mmHg 87%
    07:00 -1°C° 0 mm 4 m/S 735 mmHg 84%
    08:00 -1°C° 0 mm 5 m/S 734 mmHg 80%
    09:00 -1°C° 0.2 mm 5 m/S 734 mmHg 82%
    10:00 -1°C° 0.2 mm 6 m/S 733 mmHg 83%
    11:00 -1°C° 0.2 mm 7 m/S 733 mmHg 84%
    12:00 -1°C° 0.2 mm 7 m/S 732 mmHg 87%
    13:00 -1°C° 0.2 mm 7 m/S 732 mmHg 90%
    14:00 0°C° 0.2 mm 7 m/S 731 mmHg 92%
    15:00 +1°C° 0.1 mm 6 m/S 731 mmHg 88%
    16:00 +2°C° 0.1 mm 5 m/S 730 mmHg 84%
    17:00 +3°C° 0.1 mm 4 m/S 730 mmHg 80%
    18:00 +3°C° 0 mm 4 m/S 729 mmHg 78%
    19:00 +3°C° 0 mm 4 m/S 729 mmHg 76%
    20:00 +2°C° 0 mm 5 m/S 729 mmHg 74%
    21:00 +3°C° 0 mm 4 m/S 729 mmHg 74%
    22:00 +4°C° 0 mm 4 m/S 728 mmHg 74%
    23:00 +4°C° 0 mm 4 m/S 728 mmHg 74%

    26 Februar, Mittwoch

    Zeit Temperatur Niederschläge Wind Luftdruck Luftfeuchtigkeit
    00:00 +3°C° 0 mm 4 m/S 728 mmHg 76%
    01:00 +3°C° 0 mm 3 m/S 728 mmHg 77%
    02:00 +3°C° 0 mm 3 m/S 727 mmHg 79%
    03:00 +3°C° 0 mm 3 m/S 727 mmHg 78%
    04:00 +3°C° 0 mm 3 m/S 726 mmHg 78%
    05:00 +3°C° 0 mm 3 m/S 726 mmHg 77%
    06:00 +3°C° 0 mm 3 m/S 725 mmHg 78%
    07:00 +3°C° 0 mm 3 m/S 725 mmHg 78%
    08:00 +3°C° 0 mm 3 m/S 725 mmHg 79%
    09:00 +3°C° 0.4 mm 3 m/S 725 mmHg 83%
    10:00 +4°C° 0.4 mm 3 m/S 725 mmHg 86%
    11:00 +4°C° 0.4 mm 3 m/S 725 mmHg 90%
    12:00 +4°C° 0.1 mm 3 m/S 725 mmHg 89%
    13:00 +4°C° 0.1 mm 3 m/S 725 mmHg 88%
    14:00 +6°C° 0.1 mm 2 m/S 725 mmHg 87%
    15:00 +5°C° 0 mm 2 m/S 724 mmHg 88%
    16:00 +6°C° 0 mm 1 m/S 724 mmHg 89%
    17:00 +6°C° 0 mm 1 m/S 724 mmHg 91%
    18:00 +6°C° 0.2 mm 1 m/S 724 mmHg 91%
    19:00 +5°C° 0.2 mm 0 m/S 725 mmHg 92%
    20:00 +5°C° 0.2 mm 0 m/S 725 mmHg 93%
    21:00 +5°C° 0 mm 0 m/S 725 mmHg 93%
    22:00 +4°C° 0 mm 0 m/S 725 mmHg 93%
    23:00 +5°C° 0 mm 1 m/S 725 mmHg 93%

    27 Februar, Donnerstag

    Zeit Temperatur Niederschläge Wind Luftdruck Luftfeuchtigkeit
    00:00 +5°C° 0 mm 1 m/S 725 mmHg 93%
    01:00 +5°C° 0 mm 1 m/S 725 mmHg 94%
    02:00 +5°C° 0 mm 1 m/S 724 mmHg 94%
    03:00 +4°C° 0 mm 1 m/S 724 mmHg 94%
    04:00 +3°C° 0 mm 2 m/S 724 mmHg 94%
    05:00 +2°C° 0 mm 3 m/S 724 mmHg 94%
    06:00 +2°C° 0.3 mm 3 m/S 724 mmHg 95%
    07:00 +2°C° 0.3 mm 3 m/S 723 mmHg 95%
    08:00 +2°C° 0.3 mm 3 m/S 723 mmHg 96%
    09:00 +1°C° 1.7 mm 4 m/S 723 mmHg 96%
    10:00 +1°C° 1.7 mm 4 m/S 723 mmHg 96%
    11:00 0°C° 1.7 mm 5 m/S 723 mmHg 97%
    12:00 0°C° 2.1 mm 5 m/S 723 mmHg 97%
    13:00 -1°C° 2.1 mm 5 m/S 723 mmHg 98%
    14:00 -1°C° 2.1 mm 5 m/S 723 mmHg 98%
    15:00 -1°C° 0.5 mm 5 m/S 724 mmHg 98%
    16:00 -1°C° 0.5 mm 5 m/S 724 mmHg 98%
    17:00 0°C° 0.5 mm 5 m/S 725 mmHg 97%
    18:00 0°C° 0 mm 5 m/S 725 mmHg 95%
    19:00 0°C° 0 mm 5 m/S 726 mmHg 92%
    20:00 -1°C° 0 mm 5 m/S 726 mmHg 89%
    21:00 -2°C° 0 mm 6 m/S 727 mmHg 88%
    22:00 -2°C° 0 mm 6 m/S 727 mmHg 87%
    23:00 -3°C° 0 mm 6 m/S 727 mmHg 86%

    28 Februar, Freitag

    Zeit Temperatur Niederschläge Wind Luftdruck Luftfeuchtigkeit
    00:00 -3°C° 0 mm 6 m/S 728 mmHg 86%
    01:00 -4°C° 0 mm 6 m/S 728 mmHg 86%
    02:00 -5°C° 0 mm 6 m/S 728 mmHg 86%
    03:00 -5°C° 0 mm 6 m/S 728 mmHg 85%
    04:00 -5°C° 0 mm 6 m/S 729 mmHg 84%
    05:00 -6°C° 0 mm 6 m/S 729 mmHg 84%
    06:00 -6°C° 0 mm 5 m/S 729 mmHg 83%
    07:00 -6°C° 0 mm 5 m/S 730 mmHg 82%
    08:00 -5°C° 0 mm 4 m/S 730 mmHg 80%
    09:00 -4°C° 0 mm 4 m/S 730 mmHg 75%
    10:00 -2°C° 0 mm 3 m/S 731 mmHg 69%
    11:00 -1°C° 0 mm 3 m/S 731 mmHg 63%
    12:00 0°C° 0 mm 3 m/S 731 mmHg 62%
    13:00 +1°C° 0 mm 3 m/S 730 mmHg 61%
    14:00 +1°C° 0 mm 3 m/S 730 mmHg 60%
    15:00 +1°C° 0 mm 3 m/S 730 mmHg 64%
    16:00 +2°C° 0 mm 2 m/S 730 mmHg 67%
    17:00 +2°C° 0 mm 2 m/S 730 mmHg 71%
    18:00 0°C° 0.2 mm 3 m/S 729 mmHg 78%
    19:00 0°C° 0.2 mm 3 m/S 729 mmHg 85%
    20:00 -2°C° 0.2 mm 4 m/S 729 mmHg 91%
    21:00 -1°C° 0.6 mm 4 m/S 729 mmHg 93%
    22:00 -1°C° 0.6 mm 4 m/S 729 mmHg 96%
    23:00 -1°C° 0.6 mm 4 m/S 729 mmHg 98%
    Mehr zeigen